Tracking 29747 objects as of 9-Oct-2024
HD Live streaming from Space Station
objects crossing your sky now

STARLINK-2038

Track STARLINK-2038 now!
10-day predictions
STARLINK-2038 is classified as:


NORAD ID: 47654
Int'l Code: 2021-012AL
Perigee: 553.3 km
Apogee: 555.3 km
Inclination: 53.1 °
Period: 95.6 minutes
Semi major axis: 6925 km
RCS: Unknown
Launch date: February 16, 2021
Source: United States (US)
Launch site: AIR FORCE EASTERN TEST RANGE (AFETR)
Your satellite tracking list
Your tracking list is empty




NASA's NSSDC Master Catalog

Two Line Element Set (TLE):
1 47654U 21012AL  24283.57531524  .00014257  00000-0  97386-3 0  9998
2 47654  53.0537 228.5486 0001478  86.5599 273.5559 15.06408340202199
Source of the keplerian elements: AFSPC